TimeEST,TemperatureF,Dew PointF,Humidity,Sea Level PressureIn,VisibilityMPH,Wind Direction,Wind SpeedMPH,Gust SpeedMPH,PrecipitationIn,Events,Conditions,WindDirDegrees,DateUTC
1:05 AM,43.3,38.8,84,29.65,10.0,Calm,Calm,-,N/A,,Overcast,0,2013-02-28 06:05:00
2:05 AM,43.9,40.1,87,29.65,10.0,Calm,Calm,-,N/A,,Overcast,0,2013-02-28 07:05:00
2:25 AM,42.8,41.2,94,29.65,10.0,Calm,Calm,-,N/A,,Overcast,0,2013-02-28 07:25:00
2:45 AM,47.3,38.1,70,29.65,10.0,NW,4.6,-,N/A,,Overcast,310,2013-02-28 07:45:00
3:05 AM,46.6,39.4,76,29.65,10.0,NNW,5.8,-,N/A,,Overcast,330,2013-02-28 08:05:00
3:25 AM,45.9,39.0,77,29.65,10.0,WNW,8.1,-,N/A,,Overcast,290,2013-02-28 08:25:00
3:45 AM,44.6,39.7,83,29.65,10.0,NNW,4.6,-,N/A,,Overcast,330,2013-02-28 08:45:00
4:05 AM,44.1,40.3,87,29.65,10.0,NNW,3.5,-,N/A,,Overcast,340,2013-02-28 09:05:00
4:25 AM,42.8,42.1,97,29.65,10.0,Calm,Calm,-,N/A,,Overcast,0,2013-02-28 09:25:00
4:45 AM,42.8,42.3,98,29.65,10.0,Calm,Calm,-,N/A,,Overcast,0,2013-02-28 09:45:00
5:05 AM,42.8,42.3,98,29.65,10.0,Calm,Calm,-,N/A,,Overcast,0,2013-02-28 10:05:00
5:25 AM,44.1,39.9,85,29.66,10.0,Calm,Calm,-,N/A,,Overcast,0,2013-02-28 10:25:00
5:45 AM,44.6,37.4,76,29.67,10.0,NW,5.8,-,N/A,,Overcast,320,2013-02-28 10:45:00
6:05 AM,44.6,34.9,69,29.67,10.0,NW,4.6,-,N/A,,Overcast,310,2013-02-28 11:05:00
6:25 AM,44.1,33.4,66,29.67,10.0,Calm,Calm,-,N/A,,Overcast,0,2013-02-28 11:25:00
7:05 AM,43.9,31.8,63,29.68,10.0,NW,3.5,-,N/A,,Overcast,320,2013-02-28 12:05:00
7:25 AM,43.7,30.7,60,29.68,10.0,NW,8.1,-,N/A,,Scattered Clouds,310,2013-02-28 12:25:00
7:45 AM,43.3,30.6,61,29.68,10.0,NW,4.6,-,N/A,,Clear,320,2013-02-28 12:45:00
8:05 AM,43.2,30.6,61,29.69,10.0,WNW,3.5,-,N/A,,Clear,290,2013-02-28 13:05:00
8:25 AM,44.6,30.2,57,29.69,10.0,NW,6.9,-,N/A,,Clear,310,2013-02-28 13:25:00
9:05 AM,46.4,28.9,51,29.68,10.0,WNW,8.1,17.3,N/A,,Clear,290,2013-02-28 14:05:00
9:25 AM,46.6,28.2,49,29.68,10.0,WNW,8.1,16.1,N/A,,Clear,290,2013-02-28 14:25:00
9:45 AM,47.1,28.2,48,29.68,10.0,WNW,8.1,-,N/A,,Clear,300,2013-02-28 14:45:00
10:05 AM,47.5,27.1,45,29.68,10.0,West,11.5,18.4,N/A,,Clear,270,2013-02-28 15:05:00
10:25 AM,47.8,27.0,44,29.68,10.0,WNW,10.4,17.3,N/A,,Clear,290,2013-02-28 15:25:00
10:45 AM,48.4,27.0,43,29.67,10.0,WNW,8.1,-,N/A,,Clear,290,2013-02-28 15:45:00
11:05 AM,49.5,25.5,39,29.67,10.0,WNW,8.1,16.1,N/A,,Scattered Clouds,290,2013-02-28 16:05:00
11:25 AM,50.0,25.7,39,29.66,10.0,NW,10.4,-,N/A,,Clear,310,2013-02-28 16:25:00
11:45 AM,49.8,26.2,40,29.66,10.0,NNW,10.4,18.4,N/A,,Scattered Clouds,330,2013-02-28 16:45:00
12:05 PM,48.7,26.4,42,29.67,10.0,WNW,8.1,17.3,N/A,,Mostly Cloudy,290,2013-02-28 17:05:00
12:25 PM,47.7,26.4,44,29.67,10.0,WNW,9.2,-,N/A,,Overcast,300,2013-02-28 17:25:00
12:45 PM,47.3,27.3,46,29.66,10.0,WNW,9.2,-,N/A,,Overcast,300,2013-02-28 17:45:00
1:10 PM,47.3,28.0,47,29.66,10.0,WNW,9.2,-,N/A,,Overcast,300,2013-02-28 18:10:00
1:30 PM,47.5,29.7,50,29.65,10.0,WNW,9.2,-,N/A,,Overcast,290,2013-02-28 18:30:00
1:50 PM,47.3,30.9,53,29.65,10.0,West,9.2,-,N/A,,Mostly Cloudy,280,2013-02-28 18:50:00
2:10 PM,46.6,32.9,59,29.66,10.0,NW,12.7,20.7,N/A,,Mostly Cloudy,310,2013-02-28 19:10:00
2:30 PM,47.3,32.4,56,29.66,10.0,West,9.2,18.4,N/A,,Scattered Clouds,270,2013-02-28 19:30:00
3:10 PM,47.7,31.1,53,29.66,10.0,West,8.1,16.1,N/A,,Mostly Cloudy,280,2013-02-28 20:10:00
4:10 PM,46.4,30.0,53,29.66,10.0,WNW,12.7,18.4,N/A,,Overcast,290,2013-02-28 21:10:00
4:30 PM,47.3,30.6,52,29.66,10.0,WNW,11.5,16.1,N/A,,Overcast,290,2013-02-28 21:30:00
4:50 PM,46.4,29.8,53,29.66,10.0,West,6.9,-,N/A,,Mostly Cloudy,260,2013-02-28 21:50:00
5:10 PM,46.2,28.8,51,29.66,10.0,WNW,8.1,-,N/A,,Overcast,290,2013-02-28 22:10:00
5:30 PM,46.0,29.3,52,29.67,10.0,West,3.5,-,N/A,,Overcast,260,2013-02-28 22:30:00
5:50 PM,46.4,28.8,50,29.68,10.0,WNW,10.4,-,N/A,,Overcast,290,2013-02-28 22:50:00
6:10 PM,45.9,28.6,51,29.69,10.0,WNW,13.8,18.4,N/A,,Overcast,290,2013-02-28 23:10:00
6:30 PM,45.1,30.0,55,29.70,10.0,WNW,12.7,18.4,N/A,,Overcast,300,2013-02-28 23:30:00
6:50 PM,44.6,30.0,57,29.71,10.0,WNW,9.2,18.4,N/A,,Overcast,290,2013-02-28 23:50:00
7:10 PM,44.2,30.6,59,29.72,10.0,WNW,8.1,-,N/A,,Overcast,300,2013-03-01 00:10:00
7:30 PM,44.1,30.7,59,29.72,10.0,WNW,4.6,-,N/A,,Overcast,290,2013-03-01 00:30:00
7:50 PM,44.2,30.4,58,29.72,10.0,West,9.2,-,N/A,,Overcast,280,2013-03-01 00:50:00
8:00 PM,44.2,30.6,59,29.72,10.0,WNW,8.1,-,N/A,,Overcast,300,2013-03-01 01:00:00
8:30 PM,44.6,30.2,57,29.73,10.0,West,10.4,-,N/A,,Overcast,270,2013-03-01 01:30:00
8:50 PM,44.2,30.6,59,29.73,10.0,WNW,4.6,-,N/A,,Overcast,290,2013-03-01 01:50:00
9:10 PM,44.2,30.6,59,29.74,10.0,West,6.9,-,N/A,,Overcast,270,2013-03-01 02:10:00
9:30 PM,44.2,30.2,58,29.73,10.0,West,5.8,-,N/A,,Overcast,280,2013-03-01 02:30:00
9:50 PM,44.2,30.6,59,29.74,10.0,WNW,6.9,-,N/A,,Overcast,290,2013-03-01 02:50:00
10:10 PM,44.2,30.7,59,29.73,10.0,West,9.2,-,N/A,,Overcast,270,2013-03-01 03:10:00
10:30 PM,44.2,31.1,60,29.73,10.0,West,6.9,-,N/A,,Overcast,280,2013-03-01 03:30:00
10:50 PM,44.1,31.5,61,29.73,10.0,WNW,6.9,-,N/A,,Overcast,290,2013-03-01 03:50:00
11:10 PM,43.9,31.6,62,29.73,10.0,West,8.1,-,N/A,,Overcast,270,2013-03-01 04:10:00
11:30 PM,43.9,31.8,63,29.73,10.0,WNW,8.1,-,N/A,,Overcast,290,2013-03-01 04:30:00
11:50 PM,43.9,32.0,63,29.73,10.0,West,5.8,-,N/A,,Overcast,280,2013-03-01 04:50:00